Waarnemingen

Advertentie
Mijn weer
St-Sauveur, Frankrijk (7300): temperatuur & dauwpunt: 14.10.2018 15:00:00 - 20.10.2018 15:00:00 (CEST)St-Sauveur, Frankrijk (7300): windsnelheid & windstoten: 14.10.2018 15:00:00 - 20.10.2018 15:00:00 (CEST)St-Sauveur, Frankrijk (7300): windrichting: 14.10.2018 15:00:00 - 20.10.2018 15:00:00 (CEST)St-Sauveur, Frankrijk (7300): luchtdruk: 14.10.2018 15:00:00 - 20.10.2018 15:00:00 (CEST)St-Sauveur, Frankrijk (7300): zicht: 14.10.2018 15:00:00 - 20.10.2018 15:00:00 (CEST)St-Sauveur, Frankrijk (7300): neerslag: 14.10.2018 15:00:00 - 20.10.2018 15:00:00 (CEST)
Datum & Tijd tt [°C] td [°C] ff [km/u] ff [kn] fx [km/u] fx [kn] dd ppp [hPa] vv [km] rr [mm]
20.10.2018 15:00:00 18,6 12,6 19 11 44 24 NNO 1027,0 - 0,0
20.10.2018 14:00:00 17,4 11,4 22 12 39 21 NO 1027,4 - 0,0
20.10.2018 13:00:00 16,0 11,2 26 14 40 21 NNO 1028,3 - 0,0
20.10.2018 12:00:00 14,7 10,7 21 11 36 19 NNO 1028,2 - 0,0
20.10.2018 11:00:00 13,6 10,4 19 11 36 19 NO 1027,6 - 0,0
20.10.2018 10:00:00 12,4 10,5 21 12 32 18 NO 1027,4 - 0,0
20.10.2018 09:00:00 11,6 10,0 21 11 39 21 NO 1027,1 - 0,0
20.10.2018 08:00:00 11,8 10,4 20 11 38 20 NO 1026,6 15 0,0
20.10.2018 07:00:00 12,0 10,7 20 11 41 22 NO 1026,2 - 0,0
20.10.2018 06:00:00 12,2 10,8 26 14 40 22 NO 1025,8 - 0,0
20.10.2018 05:00:00 12,4 11,0 22 12 39 21 NO 1025,4 15 0,0
20.10.2018 04:00:00 12,6 11,0 21 11 35 19 NO 1025,2 - 0,0
20.10.2018 03:00:00 13,1 11,3 23 12 43 23 NO 1025,5 - 0,0
20.10.2018 02:00:00 13,7 11,6 26 14 44 24 NO 1025,4 - 0,0
20.10.2018 01:00:00 14,1 12,0 22 12 34 18 NO 1024,9 - 0,0
20.10.2018 00:00:00 14,5 12,0 19 10 31 17 NO 1024,6 - 0,0
19.10.2018 23:00:00 15,3 12,4 20 11 34 19 NO 1024,5 15 0,0
19.10.2018 22:00:00 15,8 12,9 21 12 31 17 NNO 1024,4 - 0,0
19.10.2018 21:00:00 16,3 13,0 18 10 32 17 NNO 1023,9 - 0,0
19.10.2018 20:00:00 17,2 12,7 20 11 39 21 NNO 1023,3 10 0,0
19.10.2018 19:00:00 17,8 13,3 18 10 37 20 NNO 1022,4 - 0,0
19.10.2018 18:00:00 18,9 13,5 20 11 32 17 NNO 1021,7 - 0,0
19.10.2018 17:00:00 19,2 13,6 19 11 32 18 NNO 1021,5 10 0,0
19.10.2018 16:00:00 20,0 13,7 18 10 35 19 NNO 1021,4 - 0,0
19.10.2018 15:00:00 19,7 13,4 23 12 38 21 NO 1021,4 - 0,0
19.10.2018 14:00:00 17,6 12,9 21 12 41 22 NNO 1021,7 10 0,0
19.10.2018 13:00:00 16,1 12,3 26 14 40 21 NNO 1022,2 - 0,0
19.10.2018 12:00:00 15,0 11,8 23 12 38 20 NNO 1022,1 - 0,0
19.10.2018 11:00:00 13,8 11,1 21 11 40 21 NO 1022,0 10 0,0
19.10.2018 10:00:00 12,7 10,8 26 14 40 22 NO 1021,4 - 0,0
19.10.2018 09:00:00 12,3 10,7 23 12 37 20 NO 1020,7 - 0,0
19.10.2018 08:00:00 12,5 10,9 20 11 35 19 NO 1020,7 20 0,0
19.10.2018 07:00:00 12,7 10,9 21 11 36 19 NO 1020,2 - 0,0
19.10.2018 06:00:00 13,2 11,3 20 11 34 18 NO 1020,4 - 0,0
19.10.2018 05:00:00 13,5 11,4 21 11 33 18 NO 1020,3 20 0,0
19.10.2018 04:00:00 13,8 11,5 20 11 36 20 NO 1020,3 - 0,0
19.10.2018 03:00:00 14,3 11,8 22 12 34 19 NO 1020,3 - 0,0
19.10.2018 02:00:00 14,7 11,8 22 12 34 19 NO 1020,4 20 0,0
19.10.2018 01:00:00 15,0 11,9 22 12 34 19 NO 1020,3 - 0,0
19.10.2018 00:00:00 15,3 12,1 23 12 36 19 NO 1020,5 - 0,0
18.10.2018 23:00:00 15,9 12,3 22 12 35 19 NO 1020,2 - 0,0
18.10.2018 22:00:00 16,7 12,2 23 12 42 23 NO 1019,7 - 0,0
18.10.2018 21:00:00 17,5 12,6 22 12 38 21 NNO 1019,4 - 0,0
18.10.2018 20:00:00 18,4 12,6 19 10 34 19 NO 1018,8 20 0,0
18.10.2018 19:00:00 19,1 13,3 19 10 37 20 NNO 1018,2 - 0,0
18.10.2018 18:00:00 20,0 13,5 18 10 34 19 NO 1017,8 - 0,0
18.10.2018 17:00:00 20,4 13,8 17 9 37 20 NNO 1018,0 20 0,0
18.10.2018 16:00:00 20,4 13,8 20 11 37 20 NNO 1018,0 - 0,0
18.10.2018 15:00:00 20,4 14,1 18 10 39 21 NNO 1018,7 - 0,0
18.10.2018 14:00:00 19,6 13,8 23 12 40 22 NO 1019,1 10 0,0
18.10.2018 13:00:00 18,3 13,4 26 14 44 24 NO 1019,7 - 0,0
18.10.2018 12:00:00 17,3 13,2 23 13 42 23 NO 1019,6 - 0,0
18.10.2018 11:00:00 16,2 13,3 23 12 41 22 NO 1019,3 - 0,0
18.10.2018 10:00:00 15,3 12,8 26 14 43 23 NO 1019,0 - 0,0
18.10.2018 09:00:00 14,5 12,5 24 13 39 21 NO 1018,5 - 0,0
18.10.2018 08:00:00 14,3 12,5 21 11 36 19 NO 1018,2 20 0,0
18.10.2018 07:00:00 14,6 12,6 21 11 33 18 NO 1017,7 - 0,0
18.10.2018 06:00:00 14,5 12,7 21 11 32 18 NO 1017,3 - 0,0
18.10.2018 05:00:00 14,3 12,5 19 10 38 21 NO 1017,3 20 0,0
18.10.2018 04:00:00 14,6 12,5 22 12 33 18 NNO 1017,3 - 0,0
18.10.2018 03:00:00 15,0 12,3 20 11 32 17 NNO 1017,6 - 0,0
18.10.2018 02:00:00 15,3 12,8 21 11 33 18 NNO 1017,8 20 0,0
18.10.2018 01:00:00 15,4 12,9 21 11 35 19 NNO 1018,1 - 0,0
18.10.2018 00:00:00 15,3 13,0 21 11 35 19 NNO 1018,3 - 0,0
17.10.2018 23:00:00 15,3 13,1 18 10 30 16 NNO 1018,3 20 0,0
17.10.2018 22:00:00 15,2 13,0 15 8 24 13 NNO 1018,0 - 0,0
17.10.2018 21:00:00 14,7 12,7 15 8 29 16 NO 1017,9 - 0,0
17.10.2018 20:00:00 14,5 12,7 18 10 29 16 N 1017,4 25 0,0
17.10.2018 19:00:00 15,1 12,4 16 9 27 15 N 1016,8 - 0,0
17.10.2018 18:00:00 16,1 11,5 14 7 26 14 N 1016,5 - 0,0
17.10.2018 17:00:00 17,3 10,2 14 8 24 13 N 1016,7 - 0,0
17.10.2018 16:00:00 17,5 11,5 11 6 22 12 N 1016,9 - 0,0
17.10.2018 15:00:00 17,3 10,9 11 6 19 11 NNO 1017,4 - 0,0
17.10.2018 14:00:00 17,8 11,8 9 5 19 11 NO 1017,9 - 0,0
17.10.2018 13:00:00 17,3 11,8 8 5 16 9 O 1018,8 - 0,0
17.10.2018 12:00:00 16,0 12,4 9 5 16 9 ZO 1019,2 - 0,0
17.10.2018 11:00:00 14,6 13,5 9 5 14 8 OZO 1019,0 - 0,0
17.10.2018 10:00:00 13,0 13,0 7 4 13 7 OZO 1019,3 - 0,0
17.10.2018 09:00:00 9,5 9,4 6 3 9 5 O 1019,0 - 0,0
17.10.2018 08:00:00 8,9 8,6 6 4 8 4 O 1019,1 20 0,0
17.10.2018 07:00:00 9,1 9,0 4 2 4 2 OZO 1019,1 - 0,0
17.10.2018 06:00:00 9,2 8,9 0 0 3 1 N 1019,1 - 0,0
17.10.2018 05:00:00 9,2 8,9 2 1 5 3 NW 1019,1 20 0,0
17.10.2018 04:00:00 9,3 9,0 3 2 6 3 NW 1019,4 - 0,2
17.10.2018 03:00:00 9,4 8,9 3 1 6 3 NNW 1019,6 - 0,0
17.10.2018 02:00:00 9,9 9,6 4 2 6 3 WNW 1019,9 20 0,0
17.10.2018 01:00:00 9,6 9,0 3 2 5 3 WNW 1020,0 - 0,0
17.10.2018 00:00:00 10,0 9,4 6 3 10 5 WNW 1020,2 - 0,0
16.10.2018 23:00:00 10,3 9,7 4 2 5 3 WNW 1020,4 20 0,0
16.10.2018 22:00:00 10,3 9,2 4 2 7 4 WNW 1020,1 - 0,0
16.10.2018 21:00:00 10,9 9,7 5 3 8 5 W 1020,0 - 0,0
16.10.2018 20:00:00 12,0 9,7 6 3 10 5 W 1019,7 20 0,0
16.10.2018 19:00:00 14,8 10,6 7 4 19 10 W 1019,4 - 0,0
16.10.2018 18:00:00 16,0 11,4 8 4 19 10 W 1019,1 - 0,0
16.10.2018 17:00:00 16,6 11,5 8 5 20 11 W 1018,9 20 0,0
16.10.2018 16:00:00 17,8 12,5 9 5 19 10 WZW 1018,7 - 0,0
16.10.2018 15:00:00 18,6 9,9 6 3 17 9 ZW 1018,4 - 0,0
16.10.2018 14:00:00 18,4 10,2 7 4 20 11 ZW 1018,5 20 0,0
16.10.2018 13:00:00 17,2 10,8 6 3 20 11 W 1018,8 - 0,0
16.10.2018 12:00:00 16,7 11,2 7 4 19 10 W 1018,3 - 0,0
16.10.2018 11:00:00 15,9 12,5 7 4 17 9 W 1017,6 - 0,0
16.10.2018 10:00:00 15,6 12,9 6 4 15 8 W 1017,0 - 0,0
16.10.2018 09:00:00 13,3 12,0 5 3 10 5 W 1016,3 - 0,0
16.10.2018 08:00:00 13,8 12,9 5 3 8 5 WZW 1015,5 25 0,0
16.10.2018 07:00:00 13,9 12,9 3 2 9 5 WZW 1015,3 - 0,0
16.10.2018 06:00:00 13,8 13,0 3 2 7 4 W 1014,8 - 0,0
16.10.2018 05:00:00 13,9 13,1 3 2 9 5 WZW 1014,4 25 0,0
16.10.2018 04:00:00 13,8 12,9 3 2 8 4 ZW 1014,1 - 0,0
16.10.2018 03:00:00 13,7 12,9 4 2 7 4 WZW 1013,9 - 0,0
16.10.2018 02:00:00 13,6 12,8 4 2 10 6 NNO 1013,4 25 0,0
16.10.2018 01:00:00 13,6 12,5 5 3 20 11 N 1013,0 - 0,0
16.10.2018 00:00:00 14,0 12,7 9 5 17 9 NNW 1012,9 - 0,0
15.10.2018 23:00:00 13,9 12,5 9 5 16 9 NNW 1012,5 25 0,0
15.10.2018 22:00:00 13,7 12,3 10 5 22 12 NNW 1011,9 - 0,0
15.10.2018 21:00:00 13,7 12,1 12 6 21 11 NW 1011,3 - 0,0
15.10.2018 20:00:00 13,5 11,9 10 6 24 13 NNW 1011,0 25 0,0
15.10.2018 19:00:00 13,8 11,7 12 6 24 13 NNW 1010,3 - 0,0
15.10.2018 18:00:00 14,4 11,5 12 6 22 12 N 1009,9 - 0,0
15.10.2018 17:00:00 14,9 11,7 12 6 23 13 NNW 1009,8 25 0,0
15.10.2018 16:00:00 15,6 12,0 13 7 23 13 N 1009,4 - 0,0
15.10.2018 15:00:00 15,4 11,8 14 8 25 13 N 1009,4 - 0,0
15.10.2018 14:00:00 15,0 11,8 10 5 18 10 N 1009,7 25 0,0
15.10.2018 13:00:00 15,4 12,5 12 6 19 10 N 1009,2 - 0,0
15.10.2018 12:00:00 15,1 12,2 8 4 14 8 N 1009,3 - 0,0
15.10.2018 11:00:00 14,3 12,2 9 5 16 9 N 1008,4 25 0,0
15.10.2018 10:00:00 12,9 12,4 8 4 14 8 NNW 1008,0 - 0,0
15.10.2018 09:00:00 11,0 10,2 11 6 14 7 NNW 1007,5 - 0,0
15.10.2018 08:00:00 12,4 11,8 10 6 16 9 WNW 1007,4 15 0,0
15.10.2018 07:00:00 12,3 11,5 9 5 16 9 WNW 1007,4 - 0,0
15.10.2018 06:00:00 12,6 11,8 10 5 18 10 NW 1007,2 - 0,0
15.10.2018 05:00:00 12,8 12,3 11 6 22 12 WNW 1006,8 - 0,0
15.10.2018 04:00:00 13,0 12,4 11 6 29 16 WNW 1007,0 - 0,2
15.10.2018 03:00:00 13,5 12,9 12 7 36 19 W 1007,2 - 0,0
15.10.2018 02:00:00 13,5 13,0 17 9 43 23 W 1006,9 15 0,4
15.10.2018 01:00:00 13,6 13,0 16 9 37 20 W 1006,4 - 0,2
15.10.2018 00:00:00 13,6 12,8 13 7 34 18 WNW 1005,7 - 0,0
14.10.2018 23:00:00 13,6 13,1 19 10 38 21 WNW 1005,4 15 0,0
14.10.2018 22:00:00 13,5 13,0 23 12 40 21 WNW 1005,2 - 0,0
14.10.2018 21:00:00 13,7 13,2 17 9 36 20 WNW 1005,0 - 0,0
14.10.2018 20:00:00 13,7 13,2 16 9 42 23 WNW 1004,3 8 0,0
14.10.2018 19:00:00 14,0 13,5 22 12 47 25 WNW 1002,9 - 0,0
14.10.2018 18:00:00 15,2 14,6 18 10 35 19 WNW 1002,4 - 0,0
14.10.2018 17:00:00 16,1 15,3 18 10 31 17 ZZW 1002,7 8 0,0
14.10.2018 16:00:00 16,6 16,0 22 12 29 16 ZZW 1002,0 - 0,0
14.10.2018 15:00:00 17,1 16,6 13 7 26 14 Z 1002,2 - 0,2

tt = temperatuur
td = dauwpunt
ff = windsnelheid
fx = windstoten
dd = windrichting
ppp = luchtdruk
vv = zicht
rr = neerslag

Weerstations in de omgeving